Location: Drocourt
(49.0571°N, 1.7669°E)
Time: 14:28:31
(UTC+00:00)

Vanguard 2 Rocket - Pass Details

Date: 14 April 2024
Orbit: 556 x 3304 km, 32.9° (Epoch: 22 May)

Event Time Altitude Azimuth Distance (km) Brightness Sun altitude
Exits shadow 02:59:09 18° 251° (WSW) 5,242 10.2 -18.6°
Maximum altitude 03:10:42 37° 201° (SSW) 3,423 9.3 -17.2°
Drops below altitude 10° 03:21:18 10° 139° (SE) 4,145 10.3 -15.8°
Sets 03:24:19 0° 130° (SE) 4,796 10.8 -15.4°
